This is the latest recevied weather packets stored in our database for station/object DC4AT. If no packets are shown the sender has not sent any weather packets the latest 10 day(s).
| Time | Temp. | Humidity | Pressure | Rain* | Wind** | Luminosity | Snow |
|---|---|---|---|---|---|---|---|
| 1787855256 | 24.44° C | 67% | 1012.2 hPa | 0 mm | - | 0 W/m² | - |
| 1787854656 | 24.44° C | 66% | 1012.2 hPa | 0 mm | - | 0 W/m² | - |
| 1787854056 | 24.44° C | 66% | 1012.2 hPa | 0 mm | - | 5 W/m² | - |
| 1787853456 | 25° C | 65% | 1012.2 hPa | 0 mm | - | 11 W/m² | - |
| 1787852856 | 25° C | 64% | 1012.3 hPa | 0 mm | - | 16 W/m² | - |
| 1787852256 | 25.56° C | 63% | 1012.2 hPa | 0 mm | - | 25 W/m² | - |
| 1787851656 | 25.56° C | 62% | 1012.3 hPa | 0 mm | - | 33 W/m² | - |
| 1787851056 | 26.11° C | 61% | 1012.4 hPa | 0 mm | - | 42 W/m² | - |
| 1787850456 | 26.11° C | 61% | 1012.4 hPa | 0 mm | - | 69 W/m² | - |
| 1787849857 | 26.11° C | 61% | 1012.3 hPa | 0 mm | - | 90 W/m² | - |
| 1787849257 | 26.11° C | 60% | 1012.4 hPa | 0 mm | - | 83 W/m² | - |
| 1787848657 | 26.11° C | 59% | 1012.4 hPa | 0 mm | - | 118 W/m² | - |
| 1787848057 | 26.11° C | 59% | 1012.7 hPa | 0 mm | - | 113 W/m² | - |
| 1787847457 | 26.67° C | 57% | 1012.7 hPa | 0 mm | - | 107 W/m² | - |
| 1787846857 | 26.67° C | 57% | 1012.8 hPa | 0 mm | - | 105 W/m² | - |
| 1787846257 | 26.67° C | 57% | 1013 hPa | 0 mm | - | 139 W/m² | - |
| 1787845657 | 26.67° C | 56% | 1012.9 hPa | 0 mm | - | 167 W/m² | - |
| 1787845057 | 26.67° C | 55% | 1013 hPa | 0 mm | - | 162 W/m² | - |
| 1787844457 | 27.22° C | 55% | 1013.1 hPa | 0 mm | - | 163 W/m² | - |
| 1787843857 | 27.22° C | 55% | 1013.1 hPa | 0 mm | - | 171 W/m² | - |
| 1787843257 | 27.22° C | 53% | 1013.4 hPa | 0 mm | - | 165 W/m² | - |
| 1787842657 | 27.22° C | 54% | 1013.2 hPa | 0 mm | - | 279 W/m² | - |
| 1787842057 | 27.22° C | 54% | 1013.1 hPa | 0 mm | - | 272 W/m² | - |
| 1787841457 | 27.22° C | 54% | 1013.2 hPa | 0 mm | - | 250 W/m² | - |
| 1787840857 | 27.22° C | 53% | 1013.3 hPa | 0 mm | - | 330 W/m² | - |
* Rain latest hour (hover to see other rain measurements)
** Current wind speed in m/s (hover to see current wind gust speed)